Regional Weather Roundup
Issued by NWS

Home | Current Version | Previous Version | Graphics & Text | Print | Product List | Glossary On
Versions: 1 2 3 4 5 6 7 8 9 10 11 12 13 14 15 16 17 18 19 20 21 22 23 24 25 26 27 28 29 30 31 32 33 34 35 36 37 38 39 40 41 42 43 44 45 46 47 48 49 50
488
ASUS45 KPSR 112110
RWRAZ

ARIZONA HOURLY REGIONAL WEATHER ROUNDUP
NATIONAL WEATHER SERVICE PHOENIX AZ
200 PM MST MON DEC 11 2017

NOTE: FAIR INDICATES FEW OR NO CLOUDS BELOW 12,000 FEET WITH NO
SIGNIFICANT WEATHER AND/OR OBSTRUCTIONS TO VISIBILITY.

AZZ001>003-036-112200-
NORTHWEST ARIZONA

CITY           SKY/WX    TMP DP  RH WIND       PRES   REMARKS
BULLHEAD CITY  PTSUNNY   68   0   6 N28G35    30.24F
KINGMAN        MOSUNNY   60   3  10 NE7       30.33F
$$

AZZ004>008-015-016-018-112200-
NORTH CENTRAL ARIZONA

CITY           SKY/WX    TMP DP  RH WIND       PRES   REMARKS
GRAND CANYON   SUNNY     53 -22   4 E14G22    30.44F
WILLIAMS       MOSUNNY   57 -17   4 NW8       30.38F
PRESCOTT       CLOUDY    54  -5   8 NW3       30.35F
FLAGSTAFF      MOSUNNY   42  -5  13 E9        30.43S
PAYSON         MOSUNNY   63  -6   6 SW7       30.32S
PAGE           SUNNY     45  17  32 CALM      30.46F
$$

AZZ009>014-017-112200-
NORTHEAST ARIZONA

CITY           SKY/WX    TMP DP  RH WIND       PRES   REMARKS
WINSLOW        PTSUNNY   40   1  19 NW3       30.45F
SAINT JOHNS    CLOUDY    42   1  18 NW6       30.41F
WINDOW ROCK    SUNNY     55  -3   9 VRB5      30.41F
SHOW LOW       PTSUNNY   43   1  17 N10       30.42F
$$

AZZ540-542>544-546-548-112200-
GREATER PHOENIX AREA

CITY           SKY/WX    TMP DP  RH WIND       PRES   REMARKS
PHOENIX        PTSUNNY   75   7   7 CALM      30.17F
BUCKEYE        MOSUNNY   75  55  50 E10       30.18F
GLENDALE       MOSUNNY   75   5   6 CALM      30.19F
LUKE AFB       PTSUNNY   75   7   7 E5        30.16F
DEER VALLEY    MOSUNNY   76   0   5 S7        30.17F
SCOTTSDALE     MOSUNNY   75  12   9 S5        30.19F
MESA-GATEWAY   PTSUNNY   73  10   9 NW6       30.19F
CHANDLER       PTSUNNY   75  10   8 N7        30.18F
$$

AZZ539-553-112200-
SOUTHWEST MARICOPA COUNTY AND PINAL COUNTY

CITY           SKY/WX    TMP DP  RH WIND       PRES   REMARKS
CASA GRANDE    NOT AVBL
GILA BEND      PTSUNNY   77  16  10 E8        30.14F
$$

AZZ503-504-507>509-112200-
SOUTHEAST ARIZONA

CITY           SKY/WX    TMP DP  RH WIND       PRES   REMARKS
TUCSON         PTSUNNY   72  18  13 SE10      30.22F
DAVIS-MONTHAN  PTSUNNY   70  20  15 SE12      30.20F
RYAN FIELD     SUNNY     73  19  13 E9        30.21F
NOGALES        PTSUNNY   69  11  10 VRB3      30.24F
SIERRA VISTA   CLOUDY    62  17  17 NE6       30.31F
DOUGLAS        CLOUDY    57  20  23 CALM      30.30F
SAFFORD        MOSUNNY   63  11  13 S10       30.28F
$$

AZZ532-112200-
SOUTHWEST ARIZONA

CITY           SKY/WX    TMP DP  RH WIND       PRES   REMARKS
YUMA           MOSUNNY   78   8   7 N9        30.16F
$$

CAZ041-043-047-048-061-525>527-560>570-112200-
SOUTHERN CALIFORNIA

CITY           SKY/WX    TMP DP  RH WIND       PRES   REMARKS
DOWNTOWN L.A.  MOSUNNY   80  16   9 CALM      30.16F
L.A. AIRPORT   PTSUNNY   83   7   5 VRB3      30.16F
SAN DIEGO      MOSUNNY   78  17  10 NW12      30.16F
BURBANK        MOSUNNY   79   4   5 VRB3      30.18F
ONTARIO        PTSUNNY   80   1   5 VRB3      30.18F
RIVERSIDE      SUNNY     81   5   5 NE8       30.18F
PALM SPRINGS   SUNNY     84  -1   4 CALM      30.20F
EL CENTRO NAS  MOSUNNY   80  -4   4 VRB7      30.19F
IMPERIAL       SUNNY     80   4   5 N7        30.17F
BLYTHE         SUNNY     76   2   5 N12       30.21F
NEEDLES        CLOUDY    70   1   6 N17       30.26F
$$

NVZ020-UTZ003-112200-
SOUTHERN NEVADA-UTAH

CITY           SKY/WX    TMP DP  RH WIND       PRES   REMARKS
LAS VEGAS      MOSUNNY   63   0   8 CALM      30.34F
SALT LAKE CITY FOG       29  26  89 N6        30.59F VSB 1/4 WCI  23
$$

NMZ009-TXZ055-112200-
NEW MEXICO-WEST TEXAS

CITY           SKY/WX    TMP DP  RH WIND       PRES   REMARKS
ALBUQUERQUE    CLOUDY    47   0  14 SW3       30.38F
EL PASO        MOSUNNY   59  19  21 CALM      30.30F
$$


........................KEY........................
SKY/WX - SKY CONDITION/WEATHER
TMP    - TEMPERATURE IN FAHRENHEIT
DP     - DEW POINT IN FAHRENHEIT
RH     - RELATIVE HUMIDITY IN PERCENT
WIND   - DIRECTION AND SPEED IN MILES PER HOUR (MPH)
VRB    - VARIABLE WIND DIRECTION
PRES   - MEAN SEA LEVEL PRESSURE IN INCHES OF MERCURY
         F - FALLING PRESSURE   R - RISING PRESSURE
         S - STEADY PRESSURE
VSB    - VISIBILITY IN MILES
HX     - HEAT INDEX IN FAHRENHEIT
WCI    - WIND CHILL INDEX IN FAHRENHEIT
TC     - TEMPERATURE IN CELSIUS WHICH IS ALSO KNOWN AS
         TEMPERATURE IN CENTIGRADE
AFB    - AIR FORCE BASE
         LUKE AFB IS LUKE AIR FORCE BASE
         DAVIS-MONTHAN IS DAVIS-MONTHAN AIR FORCE BASE
NAS    - NAVAL AIR STATION
         EL CENTRO NAS IS EL CENTRO NAVAL AIR STATION
N/A    - NOT AVAILABLE





USA.gov is the U.S. government's official web portal to all federal, state and local government web resources and services.